FW7648 Weather Reports


Display with metric or nautical units.
time (UTC)temp
F
wind
direction
speed
MPH
gust
MPH
rain 1hr
in
rain 24hr
in
rain mn
in
humidity
%
barometer
mb
20260508101559 37 0 0.0 1.0 0.00 0.00 0.00 87 1016.4
20260508101058 37 0 0.0 1.0 0.00 0.00 0.00 87 1016.5
20260508100557 37 0 0.0 0.0 0.00 0.00 0.00 87 1016.4
20260508100057 37 0 0.0 0.0 0.00 0.00 0.00 87 1016.4
20260508095558 37 0 0.0 0.0 0.00 0.00 0.00 87 1016.4
20260508095057 37 0 0.0 0.0 0.00 0.00 0.00 87 1016.3
20260508094558 37 0 0.0 0.0 0.00 0.00 0.00 87 1016.3
20260508094101 37 0 0.0 0.0 0.00 0.00 0.00 87 1016.2
20260508093600 37 0 0.0 1.0 0.00 0.00 0.00 87 1016.2
20260508093101 37 0 0.0 1.0 0.00 0.00 0.00 87 1016.1
20260508092556 37 0 0.0 1.0 0.00 0.00 0.00 87 1016.2
20260508092101 37 0 0.0 2.0 0.00 0.00 0.00 87 1016.1
20260508091620 37 0 0.0 2.0 0.00 0.00 0.00 87 1016.1
20260508091059 38 146 1.0 2.0 0.00 0.00 0.00 87 1016.2
20260508090601 38 137 0.0 2.0 0.00 0.00 0.00 87 1015.8
20260508090108 38 0 0.0 2.0 0.00 0.00 0.00 87 1015.9
20260508085557 38 325 0.0 2.0 0.00 0.00 0.00 87 1015.8
20260508085057 38 0 0.0 2.0 0.00 0.00 0.00 87 1015.9
20260508084556 38 0 0.0 1.0 0.00 0.00 0.00 87 1015.8
20260508084058 38 325 0.0 2.0 0.00 0.00 0.00 87 1015.9
20260508083558 38 0 0.0 2.0 0.00 0.00 0.00 87 1015.9
20260508083110 38 325 0.0 2.0 0.00 0.00 0.00 87 1015.8
20260508082557 38 325 0.0 2.0 0.00 0.00 0.00 87 1015.9
20260508082057 38 0 0.0 2.0 0.00 0.00 0.00 87 1015.9
20260508081600 38 325 0.0 2.0 0.00 0.00 0.00 87 1015.9
20260508081100 38 0 0.0 1.0 0.00 0.00 0.00 87 1015.9
20260508080558 38 0 0.0 1.0 0.00 0.00 0.00 86 1015.9
20260508080109 38 0 0.0 2.0 0.00 0.00 0.00 86 1016.0
20260508075558 38 0 0.0 2.0 0.00 0.00 0.00 86 1015.9
20260508075056 38 0 0.0 2.0 0.00 0.00 0.00 86 1015.8
20260508074555 38 0 0.0 1.0 0.00 0.00 0.00 86 1015.8
20260508074056 38 0 0.0 0.0 0.00 0.00 0.00 86 1015.9
20260508073558 38 0 0.0 0.0 0.00 0.00 0.00 86 1015.9
20260508073103 38 0 0.0 0.0 0.00 0.00 0.00 86 1015.9
20260508072558 38 0 0.0 0.0 0.00 0.00 0.00 86 1015.8
20260508072057 38 0 0.0 0.0 0.00 0.00 0.00 85 1015.8
20260508071603 38 0 0.0 0.0 0.00 0.00 0.00 85 1015.8
20260508071057 38 0 0.0 0.0 0.00 0.00 0.00 85 1015.9
20260508070558 38 0 0.0 1.0 0.00 0.00 0.00 85 1015.8
20260508070140 38 0 0.0 1.0 0.00 0.00 0.00 85 1015.9
20260508065557 38 0 0.0 1.0 0.00 0.00 0.00 85 1015.8
20260508065057 38 0 0.0 1.0 0.00 0.00 0.00 85 1016.1
20260508064607 38 0 0.0 0.0 0.00 0.00 0.00 85 1016.1
20260508064059 39 0 0.0 0.0 0.00 0.00 0.00 85 1016.1
20260508063557 39 0 0.0 0.0 0.00 0.00 0.00 85 1016.1
20260508063057 39 0 0.0 0.0 0.00 0.00 0.00 85 1016.1
20260508062556 39 0 0.0 0.0 0.00 0.00 0.00 85 1016.2
20260508062056 39 0 0.0 0.0 0.00 0.00 0.00 85 1016.3
20260508061603 39 0 0.0 0.0 0.00 0.00 0.00 84 1016.3
20260508061100 39 0 0.0 1.0 0.00 0.00 0.00 84 1016.3
20260508060556 39 0 0.0 1.0 0.00 0.00 0.00 84 1016.4
20260508060057 39 0 0.0 1.0 0.00 0.00 0.00 84 1016.2
20260508055556 39 0 0.0 0.0 0.00 0.00 0.00 83 1016.4
20260508055056 40 0 0.0 0.0 0.00 0.00 0.00 83 1016.2
20260508054557 40 0 0.0 0.0 0.00 0.00 0.00 82 1016.2
20260508054057 40 0 0.0 0.0 0.00 0.00 0.00 82 1016.0
20260508053557 40 0 0.0 0.0 0.00 0.00 0.00 83 1016.0
20260508053106 40 0 0.0 0.0 0.00 0.00 0.00 82 1016.2
20260508052557 40 0 0.0 0.0 0.00 0.00 0.00 82 1016.2
20260508052056 40 0 0.0 0.0 0.00 0.00 0.00 82 1016.3
20260508051557 40 0 0.0 0.0 0.00 0.00 0.00 82 1016.4
20260508051059 41 0 0.0 0.0 0.00 0.00 0.00 82 1016.4
20260508050557 41 0 0.0 0.0 0.00 0.00 0.00 82 1016.5
20260508045556 41 0 0.0 1.0 0.00 0.00 0.00 81 1016.4
20260508045056 41 0 0.0 1.0 0.00 0.00 0.00 81 1016.4
20260508044557 41 0 0.0 1.0 0.00 0.00 0.00 81 1016.3
20260508044058 42 0 0.0 0.0 0.00 0.00 0.00 80 1016.4
20260508043556 42 0 0.0 0.0 0.00 0.00 0.00 80 1016.4
20260508043104 42 0 0.0 0.0 0.00 0.00 0.00 80 1016.3
20260508042557 42 0 0.0 0.0 0.00 0.00 0.00 80 1016.3
20260508042056 42 0 0.0 0.0 0.00 0.00 0.00 80 1016.3
20260508041558 43 0 0.0 0.0 0.00 0.00 0.00 80 1016.4
20260508041059 43 0 0.0 0.0 0.00 0.00 0.00 79 1016.4
20260508040558 43 0 0.0 0.0 0.00 0.00 0.00 79 1016.3
20260508040057 43 0 0.0 0.0 0.00 0.00 0.00 79 1016.2
20260508035600 43 0 0.0 0.0 0.00 0.00 0.00 78 1016.1
20260508035057 44 0 0.0 0.0 0.00 0.00 0.00 78 1016.1
20260508034559 44 0 0.0 0.0 0.00 0.00 0.00 77 1016.3
20260508034057 44 0 0.0 0.0 0.00 0.00 0.00 77 1016.2
20260508033557 44 0 0.0 0.0 0.00 0.00 0.00 76 1016.2
20260508033058 45 0 0.0 0.0 0.00 0.00 0.00 76 1016.1
20260508032557 45 0 0.0 0.0 0.00 0.00 0.00 75 1016.2
20260508032059 45 0 0.0 0.0 0.00 0.00 0.00 74 1016.1
20260508031559 45 0 0.0 0.0 0.00 0.00 0.00 74 1016.1
20260508031101 45 0 0.0 1.0 0.00 0.00 0.00 73 1016.1
20260508030557 46 0 0.0 1.0 0.00 0.00 0.00 73 1016.1
20260508030103 46 0 0.0 0.0 0.00 0.00 0.00 72 1016.1
20260508025557 46 0 0.0 0.0 0.00 0.00 0.00 72 1016.0
20260508025057 46 0 0.0 0.0 0.00 0.00 0.00 72 1016.0
20260508024601 47 0 0.0 0.0 0.00 0.00 0.00 71 1016.0
20260508024100 47 0 0.0 1.0 0.00 0.00 0.00 70 1016.0
20260508023557 47 0 0.0 1.0 0.00 0.00 0.00 70 1016.0
20260508023058 48 0 0.0 1.0 0.00 0.00 0.00 69 1015.9
20260508022559 48 0 0.0 0.0 0.00 0.00 0.00 68 1015.9
20260508022058 48 0 0.0 0.0 0.00 0.00 0.00 68 1015.8
20260508021559 49 0 0.0 0.0 0.00 0.00 0.00 67 1015.7
20260508021056 49 0 0.0 0.0 0.00 0.00 0.00 67 1015.6
20260508020602 49 0 0.0 0.0 0.00 0.00 0.00 66 1015.7
20260508020057 50 0 0.0 0.0 0.00 0.00 0.00 65 1015.5
20260508015558 50 0 0.0 0.0 0.00 0.00 0.00 66 1015.4
20260508015059 51 0 0.0 0.0 0.00 0.00 0.00 65 1015.3
20260508014556 51 0 0.0 0.0 0.00 0.00 0.00 64 1015.1
20260508014057 51 0 0.0 0.0 0.00 0.00 0.00 65 1015.2
20260508013557 52 0 0.0 0.0 0.00 0.00 0.00 64 1015.1
20260508013105 52 0 0.0 1.0 0.00 0.00 0.00 63 1015.0
20260508012557 53 0 0.0 1.0 0.00 0.00 0.00 62 1014.9
20260508012057 53 0 0.0 1.0 0.00 0.00 0.00 61 1014.8
20260508011557 54 0 0.0 0.0 0.00 0.00 0.00 59 1014.7
20260508011057 54 0 0.0 0.0 0.00 0.00 0.00 56 1014.6
20260508010557 55 0 0.0 0.0 0.00 0.00 0.00 55 1014.5
20260508010056 55 0 0.0 0.0 0.00 0.00 0.00 54 1014.6
20260508005556 56 0 0.0 0.0 0.00 0.00 0.00 51 1014.5
20260508005057 56 0 0.0 0.0 0.00 0.00 0.00 49 1014.6
20260508004601 56 0 0.0 0.0 0.00 0.00 0.00 49 1014.6
20260508004057 57 0 0.0 1.0 0.00 0.00 0.00 47 1014.5
20260508003600 57 0 0.0 1.0 0.00 0.00 0.00 47 1014.4
20260508003058 57 0 0.0 2.0 0.00 0.00 0.00 47 1014.3
20260508002557 58 0 0.0 3.0 0.00 0.00 0.00 46 1014.4
20260508002057 58 0 0.0 3.0 0.00 0.00 0.00 45 1014.3
20260508001554 58 0 0.0 4.0 0.00 0.00 0.00 44 1014.2
20260508001056 58 305 0.0 9.0 0.00 0.00 0.00 43 1014.2
20260508000557 59 307 0.0 9.0 0.00 0.00 0.00 42 1014.2
20260508000057 59 241 2.0 9.0 0.00 0.00 0.00 41 1014.1
20260507235556 60 320 0.0 4.0 0.00 0.00 0.00 41 1014.1
20260507235059 60 0 1.0 7.0 0.00 0.00 0.00 40 1014.2
20260507234557 61 0 1.0 7.0 0.00 0.00 0.00 40 1013.9
20260507234056 61 0 1.0 6.0 0.00 0.00 0.00 40 1013.9
20260507233556 61 259 1.0 10.0 0.00 0.00 0.00 40 1013.8
20260507233055 62 346 2.0 10.0 0.00 0.00 0.00 39 1013.8
20260507232600 62 276 1.0 6.0 0.00 0.00 0.00 39 1013.8
20260507232056 62 340 2.0 10.0 0.00 0.00 0.00 37 1014.0
20260507231557 62 242 1.0 11.0 0.00 0.00 0.00 38 1013.9
20260507231057 62 303 3.0 11.0 0.00 0.00 0.00 36 1013.8
20260507230557 62 309 3.0 11.0 0.00 0.00 0.00 36 1013.8
20260507230100 63 331 4.0 11.0 0.00 0.00 0.00 35 1013.7
20260507225556 63 279 4.0 11.0 0.00 0.00 0.00 36 1013.7
20260507225057 64 286 2.0 9.0 0.00 0.00 0.00 37 1013.7
20260507224557 64 286 1.0 8.0 0.00 0.00 0.00 36 1013.6
20260507224056 64 298 2.0 8.0 0.00 0.00 0.00 36 1013.5
20260507223556 64 11 2.0 8.0 0.00 0.00 0.00 35 1013.5
20260507223057 64 263 2.0 8.0 0.00 0.00 0.00 35 1013.5
20260507222556 64 348 3.0 8.0 0.00 0.00 0.00 33 1013.4
20260507222056 64 279 3.0 10.0 0.00 0.00 0.00 33 1013.4
20260507221600 64 258 4.0 11.0 0.00 0.00 0.00 32 1013.3
20260507221057 64 267 4.0 11.0 0.00 0.00 0.00 33 1013.3
20260507220557 64 315 4.0 11.0 0.00 0.00 0.00 32 1013.4
20260507220058 64 256 3.0 11.0 0.00 0.00 0.00 35 1013.2
20260507215558 65 335 4.0 11.0 0.00 0.00 0.00 35 1013.1
20260507215057 64 295 3.0 10.0 0.00 0.00 0.00 37 1013.2
20260507214555 64 277 4.0 10.0 0.00 0.00 0.00 33 1013.1
20260507214056 65 277 4.0 9.0 0.00 0.00 0.00 35 1013.1
20260507213556 64 306 3.0 11.0 0.00 0.00 0.00 36 1013.1
20260507213101 65 35 4.0 13.0 0.00 0.00 0.00 35 1013.1
20260507212557 65 307 4.0 13.0 0.00 0.00 0.00 35 1013.1
20260507212056 65 351 4.0 11.0 0.00 0.00 0.00 37 1012.8
20260507211559 65 61 3.0 9.0 0.00 0.00 0.00 35 1012.7
20260507211056 65 343 3.0 11.0 0.00 0.00 0.00 35 1012.7
20260507210558 65 352 5.0 11.0 0.00 0.00 0.00 36 1012.7
20260507210058 65 291 2.0 11.0 0.00 0.00 0.00 36 1012.5
20260507205557 65 313 3.0 13.0 0.00 0.00 0.00 37 1012.6
20260507205059 65 346 5.0 13.0 0.00 0.00 0.00 37 1012.5
20260507204601 65 349 3.0 11.0 0.00 0.00 0.00 39 1012.4
20260507204056 65 262 1.0 9.0 0.00 0.00 0.00 40 1012.3
20260507203557 64 304 3.0 9.0 0.00 0.00 0.00 40 1012.4
20260507203057 65 324 4.0 11.0 0.00 0.00 0.00 38 1012.5
20260507202556 65 311 4.0 12.0 0.00 0.00 0.00 38 1012.3
20260507202057 65 292 4.0 12.0 0.00 0.00 0.00 39 1012.4
20260507201602 65 15 3.0 9.0 0.00 0.00 0.00 40 1012.4
20260507201056 65 313 3.0 9.0 0.00 0.00 0.00 42 1012.5
20260507200556 64 5 2.0 8.0 0.00 0.00 0.00 41 1012.6
20260507200057 64 355 3.0 7.0 0.00 0.00 0.00 40 1012.4
20260507195559 63 5 1.0 7.0 0.00 0.00 0.00 42 1012.5
20260507195056 64 347 3.0 8.0 0.00 0.00 0.00 40 1012.7
20260507194600 64 286 3.0 10.0 0.00 0.00 0.00 40 1012.7
20260507194058 65 294 3.0 12.0 0.00 0.00 0.00 40 1012.7
20260507193600 65 9 4.0 12.0 0.00 0.00 0.00 42 1012.7
20260507193058 64 360 5.0 12.0 0.00 0.00 0.00 42 1012.7
20260507192557 64 266 3.0 11.0 0.00 0.00 0.00 44 1012.8
20260507192056 64 269 3.0 13.0 0.00 0.00 0.00 43 1012.8
20260507191614 64 287 3.0 13.0 0.00 0.00 0.00 42 1012.9
20260507191055 63 5 4.0 14.0 0.00 0.00 0.00 46 1013.1
20260507190556 63 290 6.0 14.0 0.00 0.00 0.00 40 1013.2
20260507190059 63 254 3.0 9.0 0.00 0.00 0.00 44 1013.2
20260507185553 63 268 4.0 8.0 0.00 0.00 0.00 40 1013.4
20260507185053 64 310 2.0 10.0 0.00 0.00 0.00 40 1013.2
20260507184603 64 0 4.0 10.0 0.00 0.00 0.00 43 1013.2
20260507184056 64 285 2.0 9.0 0.00 0.00 0.00 45 1013.2
20260507183556 64 271 2.0 10.0 0.00 0.00 0.00 46 1013.3
20260507183103 64 265 4.0 10.0 0.00 0.00 0.00 41 1013.4
20260507182558 64 342 6.0 10.0 0.00 0.00 0.00 42 1013.3
20260507182056 64 261 2.0 9.0 0.00 0.00 0.00 44 1013.3
20260507181556 63 284 2.0 9.0 0.00 0.00 0.00 45 1013.3
20260507181056 63 293 4.0 13.0 0.00 0.00 0.00 43 1013.3
20260507180558 63 333 3.0 13.0 0.00 0.00 0.00 44 1013.3
20260507180101 63 23 4.0 10.0 0.00 0.00 0.00 44 1013.4
20260507175556 63 258 3.0 9.0 0.00 0.00 0.00 48 1013.3
20260507175056 62 265 3.0 11.0 0.00 0.00 0.00 44 1013.5
20260507174558 63 277 3.0 11.0 0.00 0.00 0.00 45 1013.6
20260507174055 63 269 5.0 11.0 0.00 0.00 0.00 48 1013.5
20260507173556 63 271 3.0 10.0 0.00 0.00 0.00 47 1013.6
20260507173058 62 242 3.0 9.0 0.00 0.00 0.00 48 1013.5
20260507172557 62 308 3.0 10.0 0.00 0.00 0.00 44 1013.7
20260507172057 62 243 2.0 10.0 0.00 0.00 0.00 51 1013.7
20260507171559 61 273 3.0 8.0 0.00 0.00 0.00 50 1013.9
20260507171056 61 344 1.0 12.0 0.00 0.00 0.00 47 1013.8
20260507170556 60 355 3.0 12.0 0.00 0.00 0.00 49 1014.0
20260507170056 60 350 3.0 9.0 0.00 0.00 0.00 49 1014.0
20260507165555 62 333 3.0 11.0 0.00 0.00 0.00 47 1014.1
20260507165057 62 264 3.0 11.0 0.00 0.00 0.00 50 1014.1
20260507164633 62 255 3.0 9.0 0.00 0.00 0.00 49 1014.3
20260507164056 61 323 3.0 9.0 0.00 0.00 0.00 48 1014.1
20260507163557 60 258 3.0 9.0 0.00 0.00 0.00 52 1014.3
20260507163100 59 251 1.0 9.0 0.00 0.00 0.00 51 1014.4
20260507162556 61 11 2.0 9.0 0.00 0.00 0.00 49 1014.4
20260507162056 61 349 2.0 11.0 0.00 0.00 0.00 49 1014.4
20260507161606 61 279 3.0 11.0 0.00 0.00 0.00 50 1014.3
20260507161057 61 262 3.0 8.0 0.00 0.00 0.00 49 1014.4
20260507160556 60 0 1.0 6.0 0.00 0.00 0.00 48 1014.5
20260507160057 60 0 1.0 6.0 0.00 0.00 0.00 49 1014.5
20260507155557 59 290 1.0 7.0 0.00 0.00 0.00 51 1014.6
20260507155057 60 346 3.0 7.0 0.00 0.00 0.00 54 1014.6
20260507154558 60 0 2.0 6.0 0.00 0.00 0.00 52 1014.6
20260507154057 59 335 1.0 12.0 0.00 0.00 0.00 52 1014.7
20260507153557 60 290 2.0 12.0 0.00 0.00 0.00 52 1014.7
20260507153059 59 245 3.0 12.0 0.00 0.00 0.00 54 1014.6
20260507152557 58 313 2.0 8.0 0.00 0.00 0.00 56 1014.7
20260507152100 58 352 3.0 8.0 0.00 0.00 0.00 53 1014.6
20260507151556 58 329 0.0 6.0 0.00 0.00 0.00 54 1014.7
20260507151057 58 216 2.0 7.0 0.00 0.00 0.00 51 1014.6
20260507150557 59 279 1.0 7.0 0.00 0.00 0.00 52 1014.8
20260507150059 60 351 3.0 7.0 0.00 0.00 0.00 54 1014.7
20260507145559 60 347 1.0 7.0 0.00 0.00 0.00 54 1014.8
20260507145057 59 257 0.0 7.0 0.00 0.00 0.00 55 1015.0
20260507144600 59 282 2.0 7.0 0.00 0.00 0.00 54 1015.0
20260507144058 59 17 2.0 8.0 0.00 0.00 0.00 53 1014.9
20260507143557 59 9 2.0 8.0 0.00 0.00 0.00 56 1015.0
20260507143109 59 316 2.0 8.0 0.00 0.00 0.00 54 1015.1
20260507142557 59 66 2.0 4.0 0.00 0.00 0.00 54 1014.9
20260507142057 58 41 1.0 5.0 0.00 0.00 0.00 55 1015.0
20260507141621 58 334 2.0 5.0 0.00 0.00 0.00 56 1015.1
20260507141057 58 347 2.0 5.0 0.00 0.00 0.00 56 1015.1
20260507140559 58 67 1.0 5.0 0.00 0.00 0.00 57 1015.2
20260507140059 57 5 0.0 6.0 0.00 0.00 0.00 60 1015.4
20260507135557 57 355 2.0 6.0 0.00 0.03 0.00 62 1015.3
20260507135057 56 348 1.0 4.0 0.00 0.03 0.00 60 1015.5
20260507134600 56 288 1.0 4.0 0.00 0.03 0.00 62 1015.5
20260507134057 56 348 1.0 4.0 0.00 0.03 0.00 62 1015.5
20260507133558 56 349 1.0 5.0 0.00 0.03 0.00 65 1015.5
20260507133109 55 0 1.0 5.0 0.00 0.03 0.00 65 1015.6
20260507132558 55 0 2.0 5.0 0.00 0.03 0.00 66 1015.7
20260507132057 55 0 1.0 6.0 0.00 0.03 0.00 70 1015.7
20260507131613 54 285 2.0 6.0 0.00 0.03 0.00 70 1015.7
20260507131057 54 55 1.0 3.0 0.00 0.03 0.00 75 1015.8
20260507130557 54 97 1.0 3.0 0.00 0.03 0.00 75 1015.8
20260507130058 53 49 1.0 3.0 0.00 0.03 0.00 76 1015.8
20260507125557 53 35 0.0 2.0 0.00 0.03 0.00 78 1015.7
20260507125058 52 0 0.0 2.0 0.00 0.03 0.00 79 1015.7
20260507124556 52 0 1.0 2.0 0.00 0.03 0.00 80 1015.6
20260507124058 51 0 0.0 2.0 0.00 0.03 0.00 82 1015.7
20260507123558 51 10 0.0 1.0 0.00 0.03 0.00 84 1015.8
20260507123112 50 0 0.0 1.0 0.00 0.03 0.00 85 1015.8
20260507122559 50 0 0.0 1.0 0.00 0.03 0.00 86 1015.8
20260507122059 49 0 0.0 0.0 0.00 0.03 0.00 87 1015.8
20260507121555 49 0 0.0 0.0 0.00 0.03 0.00 87 1015.8
20260507121058 48 0 0.0 0.0 0.00 0.03 0.00 88 1015.7
20260507120557 48 0 0.0 0.0 0.00 0.03 0.00 89 1015.8
20260507120055 47 0 0.0 0.0 0.00 0.03 0.00 90 1015.7
20260507115558 47 0 0.0 0.0 0.00 0.05 0.00 90 1015.7
20260507115057 46 0 0.0 0.0 0.00 0.05 0.00 91 1015.7
20260507114559 46 0 0.0 0.0 0.00 0.05 0.00 91 1015.6
20260507114057 45 0 0.0 0.0 0.00 0.05 0.00 91 1015.7
20260507113558 45 0 0.0 0.0 0.00 0.05 0.00 91 1015.7
20260507113055 44 0 0.0 0.0 0.00 0.05 0.00 91 1015.6
20260507112557 44 0 0.0 1.0 0.00 0.05 0.00 91 1015.6
20260507112058 44 0 0.0 1.0 0.00 0.05 0.00 91 1015.5
20260507111559 43 0 0.0 0.0 0.00 0.05 0.00 91 1015.5
20260507111056 43 0 0.0 0.0 0.00 0.05 0.00 91 1015.4
20260507110600 43 0 0.0 0.0 0.00 0.05 0.00 91 1015.1
20260507110057 42 0 0.0 0.0 0.00 0.05 0.00 91 1015.3
20260507105558 43 0 0.0 0.0 0.00 0.15 0.00 91 1015.2
20260507105057 43 0 0.0 0.0 0.00 0.15 0.00 91 1015.2
20260507104601 43 0 0.0 0.0 0.00 0.15 0.00 90 1015.1
20260507104101 43 0 0.0 0.0 0.00 0.15 0.00 90 1015.2
20260507103600 43 0 0.0 0.0 0.00 0.15 0.00 90 1015.1
20260507103058 43 0 0.0 0.0 0.00 0.15 0.00 90 1015.0
20260507102559 43 0 0.0 0.0 0.00 0.15 0.00 90 1014.9
20260507102100 43 0 0.0 0.0 0.00 0.15 0.00 90 1014.8